Список аэропортов
Фактическая погода:

09 декабря, 18:00
Температура: +7°C (+4.3*)
Ветер: юго-западный 4 м/с
Давление: *749 мм
разорв. обл.
1200 м
Время (МСК)Темп. СВетерВлажностьДавлениеОблачностьОсадки
15:00+8ЮЗ, 6 м/с72%997 гПаоблачно
16:00+7ЮЗ, 6 м/с66%997 гПаоблачно
17:00+7ЮЗ, 6 м/с64%998 гПаоблачно
18:00+7Ю, 5 м/с65%999 гПаоблачно
19:00+7Ю, 5 м/с66%999 гПаоблачно
20:00+6Ю, 5 м/с67%999 гПас прояснениями
21:00+6Ю, 4 м/с70%1000 гПас прояснениями
22:00+6Ю, 4 м/с69%1000 гПас прояснениями
23:00+6Ю, 4 м/с72%1000 гПас прояснениями
10 декабря
00:00+6Ю, 4 м/с74%1000 гПас прояснениями
01:00+6Ю, 5 м/с76%1000 гПаоблачно
02:00+6Ю, 5 м/с78%1000 гПаоблачно
03:00+6Ю, 5 м/с81%1000 гПас прояснениями
04:00+6Ю, 5 м/с85%1000 гПас прояснениями
05:00+5Ю, 5 м/с88%1001 гПаоблачно
06:00+5Ю, 5 м/с88%1001 гПаоблачнодождь
07:00+5Ю, 4 м/с93%1002 гПаоблачносл. дождь
08:00+5Ю, 5 м/с92%1002 гПаоблачно
09:00+5ЮЗ, 5 м/с83%1003 гПаоблачно
10:00+4ЮЗ, 4 м/с81%1004 гПаоблачно
11:00+4ЮЗ, 4 м/с81%1005 гПаоблачносл. дождь
12:00+4ЮЗ, 5 м/с82%1006 гПаоблачносл. дождь
13:00+4ЮЗ, 4 м/с86%1006 гПаоблачносл. дождь
14:00+4Ю, 4 м/с90%1007 гПаоблачносл. дождь
15:00+4Ю, 3 м/с92%1007 гПаоблачно
16:00+5СЗ, 4 м/с91%1009 гПаоблачносл. дождь
17:00+4СЗ, 10 м/с79%1012 гПаоблачно
18:00+4С, 9 м/с51%1014 гПаоблачно
19:00+4С, 6 м/с63%1015 гПамалооблачно
20:00+5С, 5 м/с61%1016 гПаоблачно
21:00+5С, 4 м/с58%1017 гПаоблачно
22:00+4С, 3 м/с61%1018 гПаоблачно
23:00+4С, 2 м/с65%1018 гПаоблачно
11 декабря
00:00+3Штиль 74%1019 гПаоблачно
01:00+2ЮВ, 2 м/с74%1019 гПас прояснениями
02:00+1Ю, 2 м/с81%1019 гПас прояснениями
03:000Ю, 2 м/с81%1019 гПаясно
04:00-0ЮВ, 2 м/с81%1019 гПаясно
05:00-0ЮВ, 3 м/с78%1019 гПас прояснениями
06:00-0ЮВ, 3 м/с75%1018 гПаоблачно
07:00-0Ю, 3 м/с77%1018 гПаоблачно
08:00-1ЮВ, 4 м/с82%1018 гПаоблачно
09:00-1ЮВ, 4 м/с88%1017 гПаоблачно
10:00-1ЮВ, 4 м/с87%1017 гПаоблачно
11:00-0ЮВ, 4 м/с82%1016 гПаоблачно
12:000ЮВ, 5 м/с76%1016 гПаоблачно
13:00+1ЮВ, 5 м/с72%1015 гПаоблачно
14:00+2ЮВ, 7 м/с68%1014 гПаоблачно
15:00+3Ю, 6 м/с68%1013 гПаоблачно